FW7345 Weather Reports


Display with metric or nautical units.
time (UTC)temp
F
wind
direction
speed
MPH
gust
MPH
rain 1hr
in
rain 24hr
in
rain mn
in
humidity
%
barometer
mb
20260507033056 70 295 1.0 7.0 0.00 0.00 0.00 86 1013.0
20260507031550 71 339 2.0 6.0 0.00 0.00 0.00 85 1012.7
20260507030100 71 4 3.0 7.0 0.00 0.00 0.00 86 1012.3
20260507024558 71 0 3.0 10.0 0.00 0.00 0.00 85 1012.0
20260507023046 72 39 2.0 9.0 0.00 0.00 0.00 86 1011.8
20260507021551 72 11 3.0 7.0 0.00 0.00 0.00 85 1011.5
20260507020052 73 39 2.0 7.0 0.00 0.00 0.00 86 1011.0
20260507014554 73 4 4.0 7.0 0.00 0.00 0.00 85 1011.0
20260507013102 74 323 3.0 9.0 0.00 0.00 0.00 86 1010.7
20260507011555 74 121 1.0 4.0 0.00 0.00 0.00 87 1010.6
20260507010053 74 0 0.0 3.0 0.00 0.00 0.00 86 1010.4
20260507004553 74 333 1.0 4.0 0.00 0.00 0.00 86 1010.3
20260507003050 75 12 3.0 7.0 0.00 0.00 0.00 85 1009.9
20260507001548 78 329 1.0 7.0 0.00 0.00 0.00 83 1009.7
20260507000055 84 216 1.0 4.0 0.00 0.00 0.00 87 1009.3
20260506234556 86 148 0.0 1.0 0.00 0.00 0.00 83 1008.9
20260506233055 87 0 0.0 0.0 0.00 0.00 0.00 82 1008.8
20260506231551 88 0 0.0 0.0 0.00 0.00 0.00 80 1008.6
20260506230055 88 148 0.0 0.0 0.00 0.00 0.00 81 1008.5
20260506224602 88 0 0.0 3.0 0.00 0.00 0.00 80 1008.4
20260506223051 89 196 0.0 1.0 0.00 0.00 0.00 78 1008.5
20260506221554 89 0 0.0 2.0 0.00 0.00 0.00 78 1008.4
20260506220057 89 209 0.0 7.0 0.00 0.00 0.00 77 1008.1
20260506214606 90 225 0.0 2.0 0.00 0.00 0.00 77 1008.2
20260506213050 88 0 1.0 5.0 0.00 0.00 0.00 79 1008.2
20260506211550 88 0 0.0 5.0 0.00 0.00 0.00 79 1008.4
20260506210053 88 133 1.0 3.0 0.00 0.00 0.00 79 1008.6
20260506204610 87 0 1.0 6.0 0.00 0.00 0.00 80 1008.9
20260506203052 87 109 1.0 7.0 0.00 0.00 0.00 80 1008.9
20260506201552 87 199 1.0 4.0 0.00 0.00 0.00 82 1009.1
20260506200054 86 200 1.0 5.0 0.00 0.00 0.00 83 1009.1
20260506194603 85 186 2.0 9.0 0.00 0.00 0.00 84 1009.2
20260506193054 86 0 0.0 4.0 0.00 0.00 0.00 82 1009.3
20260506191555 86 186 1.0 5.0 0.00 0.00 0.00 82 1009.5
20260506190051 86 142 1.0 7.0 0.00 0.00 0.00 84 1009.6
20260506184556 85 133 2.0 7.0 0.00 0.00 0.00 85 1009.8
20260506183056 85 191 2.0 7.0 0.00 0.00 0.00 84 1009.9
20260506181552 85 169 1.0 7.0 0.00 0.00 0.00 84 1010.3
20260506180054 86 131 2.0 5.0 0.00 0.00 0.00 83 1010.5
20260506174553 84 124 0.0 3.0 0.00 0.00 0.00 86 1010.8
20260506173053 83 194 1.0 5.0 0.00 0.00 0.00 87 1011.0
20260506171556 82 171 0.0 4.0 0.00 0.00 0.00 91 1011.2
20260506170055 81 122 0.0 4.0 0.00 0.00 0.00 91 1011.3
20260506164550 80 0 0.0 4.0 0.00 0.00 0.00 93 1011.2
20260506163105 80 152 2.0 4.0 0.00 0.00 0.00 93 1011.2
20260506161604 79 205 1.0 6.0 0.00 0.00 0.00 94 1010.9
20260506160055 80 113 1.0 5.0 0.00 0.00 0.00 92 1010.8
20260506154608 79 103 1.0 6.0 0.00 0.00 0.00 93 1010.8
20260506153049 80 241 2.0 5.0 0.00 0.00 0.00 93 1010.9
20260506151548 79 180 1.0 4.0 0.00 0.00 0.00 93 1010.4
20260506150052 79 160 0.0 4.0 0.00 0.00 0.00 94 1010.2
20260506144601 78 149 1.0 3.0 0.00 0.00 0.00 95 1010.1
20260506143050 78 162 1.0 5.0 0.00 0.00 0.00 96 1009.7
20260506141559 77 146 2.0 6.0 0.00 0.00 0.00 98 1009.5
20260506140104 0 0.0 0.0 0.00 0.00 0.00 1009.7
20260506134552 0 0.0 0.0 0.00 0.00 0.00 1009.8
20260506133102 0 0.0 0.0 0.00 0.00 0.00 1009.9
20260506131551 0 0.0 0.0 0.00 0.00 0.00 1010.0
20260506130053 0 0.0 0.0 0.00 0.00 0.00 1010.0
20260506124557 0 0.0 0.0 0.00 0.00 0.00 1010.0
20260506123056 0 0.0 0.0 0.00 0.00 0.00 1009.8
20260506121553 0 0.0 0.0 0.00 0.00 0.00 1009.6
20260506120053 0 0.0 0.0 0.00 0.00 0.00 1009.5
20260506114601 0 0.0 0.0 0.00 0.00 0.00 1009.3
20260506113059 0 0.0 0.0 0.00 0.00 0.00 1009.2
20260506111600 75 0 0.0 4.0 0.00 0.00 0.00 100 1009.1
20260506110056 75 0 0.0 5.0 0.00 0.00 0.00 100 1008.8
20260506104557 75 144 0.0 4.0 0.00 0.00 0.00 99 1008.8
20260506103102 75 156 1.0 5.0 0.00 0.00 0.00 99 1008.8
20260506101558 74 184 1.0 4.0 0.00 0.00 0.00 99 1008.8
20260506100101 74 143 1.0 4.0 0.00 0.00 0.00 99 1008.6
20260506094555 75 0 0.0 3.0 0.00 0.00 0.00 99 1008.5
20260506093046 75 0 0.0 5.0 0.00 0.00 0.00 99 1008.4
20260506091554 75 108 0.0 6.0 0.00 0.00 0.00 99 1008.7
20260506090051 75 155 0.0 2.0 0.00 0.00 0.00 99 1008.8
20260506084554 75 0 0.0 1.0 0.00 0.00 0.00 99 1008.9
20260506083052 75 0 0.0 2.0 0.00 0.00 0.00 99 1008.7
20260506081557 75 131 0.0 3.0 0.00 0.00 0.00 99 1009.0
20260506073053 75 184 0.0 6.0 0.00 0.00 0.00 99 1009.3
20260506071555 75 187 0.0 5.0 0.00 0.00 0.00 99 1009.5
20260506061556 75 171 0.0 3.0 0.00 0.00 0.00 98 1009.9
20260506044638 76 150 0.0 2.0 0.00 0.00 0.00 96 1009.8
20260506043058 76 178 0.0 3.0 0.00 0.00 0.00 96 1009.7
20260506041553 76 0 1.0 4.0 0.00 0.00 0.00 95 1009.4
20260506040055 77 181 0.0 4.0 0.00 0.00 0.00 94 1009.6
20260506034551 77 198 1.0 7.0 0.00 0.00 0.00 94 1009.3